TimeMDT,TemperatureF,Dew PointF,Humidity,Sea Level PressureIn,VisibilityMPH,Wind Direction,Wind SpeedMPH,Gust SpeedMPH,PrecipitationIn,Events,Conditions,WindDirDegrees,DateUTC
12:31 AM,15.8,12.2,86,29.91,10.0,Calm,Calm,-,N/A,,Overcast,0,2013-04-11 06:31:00
12:39 AM,14.0,10.4,86,29.90,10.0,Calm,Calm,-,N/A,,Overcast,0,2013-04-11 06:39:00
12:47 AM,14.0,10.4,86,29.90,10.0,Calm,Calm,-,N/A,,Overcast,0,2013-04-11 06:47:00
12:52 AM,14.0,10.9,88,30.04,10.0,Calm,Calm,-,N/A,,Overcast,0,2013-04-11 06:52:00
1:52 AM,12.9,10.0,88,30.01,10.0,Calm,Calm,-,N/A,,Overcast,0,2013-04-11 07:52:00
2:13 AM,14.0,10.4,86,29.86,6.0,SW,4.6,-,N/A,,Overcast,220,2013-04-11 08:13:00
2:52 AM,14.0,10.9,88,29.97,10.0,Calm,Calm,-,N/A,,Overcast,0,2013-04-11 08:52:00
3:08 AM,14.0,10.4,86,29.83,10.0,WSW,4.6,-,N/A,,Overcast,250,2013-04-11 09:08:00
3:35 AM,15.8,12.2,86,29.82,10.0,Calm,Calm,-,N/A,,Overcast,0,2013-04-11 09:35:00
3:52 AM,16.0,12.9,88,29.94,10.0,West,4.6,-,N/A,,Overcast,280,2013-04-11 09:52:00
4:45 AM,17.6,14.0,86,29.79,10.0,WNW,4.6,-,N/A,,Overcast,290,2013-04-11 10:45:00
4:52 AM,17.1,14.0,88,29.91,10.0,WNW,3.5,-,N/A,,Overcast,290,2013-04-11 10:52:00
5:37 AM,17.6,14.0,86,29.77,10.0,West,4.6,-,N/A,,Overcast,280,2013-04-11 11:37:00
5:52 AM,16.0,12.9,88,29.91,10.0,West,6.9,-,N/A,,Overcast,270,2013-04-11 11:52:00
6:52 AM,14.0,10.9,88,29.92,8.0,West,10.4,-,N/A,,Overcast,270,2013-04-11 12:52:00
7:52 AM,15.1,12.0,88,29.92,10.0,WNW,5.8,-,N/A,,Mostly Cloudy,290,2013-04-11 13:52:00
8:09 AM,14.0,12.2,93,29.78,10.0,Calm,Calm,-,N/A,,Scattered Clouds,0,2013-04-11 14:09:00
9:27 AM,17.6,12.2,79,29.80,10.0,West,6.9,-,N/A,,Overcast,270,2013-04-11 15:27:00
9:52 AM,19.0,14.0,81,29.94,10.0,WNW,6.9,-,N/A,,Overcast,290,2013-04-11 15:52:00
10:29 AM,21.2,15.8,80,29.80,10.0,West,5.8,-,N/A,,Scattered Clouds,260,2013-04-11 16:29:00
10:52 AM,24.1,16.0,71,29.94,10.0,WNW,8.1,-,0.06,,Mostly Cloudy,290,2013-04-11 16:52:00
11:52 AM,25.0,17.1,72,29.92,10.0,WNW,6.9,-,0.06,,Overcast,290,2013-04-11 17:52:00
12:52 PM,27.0,19.0,72,29.89,10.0,WNW,10.4,-,0.07,,Mostly Cloudy,290,2013-04-11 18:52:00
1:52 PM,28.0,19.0,69,29.89,10.0,NW,10.4,-,0.07,,Overcast,320,2013-04-11 19:52:00
2:52 PM,28.9,19.9,69,29.89,10.0,NW,10.4,-,0.04,,Overcast,310,2013-04-11 20:52:00
3:52 PM,30.0,19.9,66,29.89,10.0,NNW,10.4,-,0.04,,Overcast,340,2013-04-11 21:52:00
4:52 PM,30.0,21.0,69,29.90,10.0,NW,9.2,-,0.02,,Overcast,320,2013-04-11 22:52:00
5:52 PM,28.9,21.0,72,29.91,10.0,NW,9.2,-,0.01,,Overcast,320,2013-04-11 23:52:00
6:52 PM,28.0,19.9,72,29.93,10.0,NW,5.8,-,0.00,,Overcast,310,2013-04-12 00:52:00
7:52 PM,28.0,21.0,75,29.94,10.0,West,4.6,-,N/A,,Overcast,270,2013-04-12 01:52:00
8:52 PM,28.9,21.0,72,29.96,10.0,West,6.9,-,N/A,,Overcast,270,2013-04-12 02:52:00
9:52 PM,28.9,21.9,75,29.96,10.0,Calm,Calm,-,N/A,,Overcast,0,2013-04-12 03:52:00
10:52 PM,28.0,23.0,81,29.95,10.0,WSW,6.9,-,N/A,,Overcast,250,2013-04-12 04:52:00
11:52 PM,28.0,21.9,78,29.95,10.0,West,6.9,-,N/A,,Overcast,260,2013-04-12 05:52:00